Location: Bonneuil
(46.1010°N, 2.9693°E)
Time: 15:31:35
(UTC+00:00)

ISS - Visible Passes

Search period start: 23 June 2021 00:00
Search period end: 03 July 2021 00:00
Orbit: 417 x 422 km, 51.6° (Epoch: 22 June)

Date Brightness Start Highest point End Pass type
(mag) Time Alt. Az. Time Alt. Az. Time Alt. Az.
28 Jun -2.1 03:01:03 10° SSW 03:03:51 25° SE 03:06:40 10° E visible
29 Jun -1.6 02:15:15 13° SSE 02:16:35 16° SE 02:18:44 10° E visible
30 Jun -3.5 03:02:30 12° SW 03:05:35 61° SSE 03:08:54 10° ENE visible
01 Jul -3.0 02:16:44 25° SSW 02:18:12 39° SE 02:21:23 10° ENE visible
02 Jul -2.3 01:30:56 25° SE 01:30:56 25° SE 01:33:43 10° E visible
02 Jul -3.4 03:04:08 10° WSW 03:07:29 62° NNW 03:10:51 10° ENE visible
